Date String (YYYY-MM-DD hh:mm:ss) UTC,Instrument flags,absolute air pressure of the measurement (hPa),sample flow rate (lpm),inlet stack bypass flow (lpm),air temperature of the measurement (°C),ambient temperature measured by the external sensor (°C),aerosol sample conditioner tube jacket temperature (°C),OPC LED temperature (°C),internal box temperature (°C),relative humidity of the measurement (%),span deviation,mass concentration of particles derived from Lorenz-Mie calculation of OPC scattering (μg/m³),mass concentration of particles derived from Lorenz-Mie calculation of OPC scattering (μg/m³),mass concentration of particles derived from Lorenz-Mie calculation of OPC scattering (μg/m³)
DateTimeUTC,F1_M11,P_M11,Q1_M11,Q2_M11,T1_M11,T2_M11,T3_M11,T4_M11,T5_M11,U1_M11,ZSPAN_M11,X0_M11,X2_M11,X1_M11
2023-08-13 05:00:00,SystemResetWarning,0830.9,4.99,000.00,029.4,027.0,000.0,037.7,030.9,23.3,0000.0,0007.29,0003.52,0002.98
2023-08-13 05:01:00,SystemResetWarning,0830.9,5.01,000.00,029.3,025.7,000.0,037.6,030.7,23.4,0000.0,0007.30,0003.48,0002.97
2023-08-13 05:02:00,SystemResetWarning,0830.9,5.01,000.00,029.2,025.6,000.0,037.5,030.5,23.5,0000.0,0007.15,0003.46,0002.96
2023-08-13 05:03:00,SystemResetWarning,0830.9,5.01,000.00,029.2,025.9,000.0,037.6,030.5,23.6,0000.0,0006.96,0003.44,0002.96
2023-08-13 05:04:00,SystemResetWarning,0830.9,4.98,000.00,029.1,026.3,000.0,037.6,030.6,23.7,0000.0,0006.61,0003.42,0002.94
2023-08-13 05:05:00,SystemResetWarning,0830.9,4.99,000.00,029.1,026.6,000.0,037.7,030.7,23.7,0000.0,0006.71,0003.41,0002.94
2023-08-13 05:06:00,SystemResetWarning,0830.9,5.00,000.00,029.2,027.0,000.0,037.7,030.8,23.7,0000.0,0006.38,0003.42,0002.93
2023-08-13 05:07:00,SystemResetWarning,0830.8,5.00,000.00,029.2,027.2,000.0,037.7,030.8,23.7,0000.0,0006.35,0003.42,0002.93
2023-08-13 05:08:00,SystemResetWarning,0830.9,5.00,000.00,029.2,027.5,000.0,037.7,030.9,23.6,0000.0,0006.24,0003.42,0002.92
2023-08-13 05:09:00,SystemResetWarning,0830.9,5.01,000.00,029.2,027.7,000.0,037.7,030.9,23.6,0000.0,0006.07,0003.38,0002.92
2023-08-13 05:10:00,SystemResetWarning,0830.9,4.99,000.00,029.3,027.8,000.0,037.7,031.0,23.5,0000.0,0005.97,0003.38,0002.92
2023-08-13 05:11:00,SystemResetWarning,0830.9,4.99,000.00,029.3,028.0,000.0,037.8,031.0,23.5,0000.0,0005.65,0003.34,0002.92
2023-08-13 05:12:00,SystemResetWarning,0830.9,5.01,000.00,029.3,028.1,000.0,037.8,031.1,23.5,0000.0,0005.52,0003.34,0002.92
2023-08-13 05:13:00,SystemResetWarning,0830.8,5.01,000.00,029.4,028.2,000.0,037.8,031.1,23.4,0000.0,0005.70,0003.35,0002.92
2023-08-13 05:14:00,SystemResetWarning,0830.8,5.00,000.00,029.4,027.7,000.0,037.8,031.1,23.3,0000.0,0005.73,0003.35,0002.91
2023-08-13 05:15:00,SystemResetWarning,0830.8,4.98,000.00,029.4,026.0,000.0,037.6,030.7,23.3,0000.0,0005.64,0003.34,0002.92
2023-08-13 05:16:00,SystemResetWarning,0830.8,5.02,000.00,029.3,025.6,000.0,037.6,030.6,23.3,0000.0,0005.06,0003.32,0002.93
2023-08-13 05:17:00,SystemResetWarning,0830.8,5.01,000.00,029.2,025.8,000.0,037.6,030.5,23.4,0000.0,0005.15,0003.34,0002.94
2023-08-13 05:18:00,SystemResetWarning,0830.8,4.99,000.00,029.1,026.1,000.0,037.6,030.5,23.6,0000.0,0005.73,0003.34,0002.95
2023-08-13 05:19:00,SystemResetWarning,0830.8,5.00,000.00,029.1,026.5,000.0,037.7,030.6,23.6,0000.0,0006.83,0003.36,0002.97
2023-08-13 05:20:00,SystemResetWarning,0830.9,5.00,000.00,029.2,026.9,000.0,037.7,030.7,23.7,0000.0,0007.44,0003.39,0002.96
2023-08-13 05:21:00,SystemResetWarning,0830.9,4.99,000.00,029.2,027.1,000.0,037.7,030.8,23.6,0000.0,0007.46,0003.39,0002.96
2023-08-13 05:22:00,SystemResetWarning,0830.9,5.00,000.00,029.2,027.4,000.0,037.7,030.9,23.6,0000.0,0007.46,0003.40,0002.96
2023-08-13 05:23:00,SystemResetWarning,0830.9,5.00,000.00,029.2,027.6,000.0,037.7,030.9,23.5,0000.0,0007.48,0003.40,0002.97
2023-08-13 05:24:00,SystemResetWarning,0830.9,5.00,000.00,029.3,027.8,000.0,037.8,031.0,23.5,0000.0,0007.39,0003.39,0002.98
2023-08-13 05:25:00,SystemResetWarning,0830.9,4.99,000.00,029.3,028.0,000.0,037.8,031.0,23.5,0000.0,0007.53,0003.43,0003.00
2023-08-13 05:26:00,SystemResetWarning,0830.9,5.00,000.00,029.3,028.1,000.0,037.8,031.1,23.4,0000.0,0007.59,0003.44,0003.00
2023-08-13 05:27:00,SystemResetWarning,0831.0,5.00,000.00,029.4,028.2,000.0,037.8,031.1,23.4,0000.0,0007.65,0003.45,0003.00
2023-08-13 05:28:00,SystemResetWarning,0830.9,4.99,000.00,029.4,027.6,000.0,037.8,031.0,23.3,0000.0,0007.53,0003.43,0002.98
2023-08-13 05:29:00,SystemResetWarning,0830.9,5.00,000.00,029.4,025.9,000.0,037.6,030.7,23.5,0000.0,0007.35,0003.41,0002.97
2023-08-13 05:30:00,SystemResetWarning,0830.8,5.01,000.00,029.3,025.7,000.0,037.6,030.6,23.5,0000.0,0006.03,0003.39,0002.96
2023-08-13 05:31:00,SystemResetWarning,0830.8,5.01,000.00,029.2,025.9,000.0,037.6,030.5,23.6,0000.0,0005.30,0003.38,0002.98
2023-08-13 05:32:00,SystemResetWarning,0830.9,4.99,000.00,029.1,026.2,000.0,037.6,030.6,23.6,0000.0,0005.26,0003.40,0002.99
2023-08-13 05:33:00,SystemResetWarning,0830.9,5.00,000.00,029.1,026.6,000.0,037.7,030.7,23.5,0000.0,0005.35,0003.41,0002.98
2023-08-13 05:34:00,SystemResetWarning,0830.8,5.01,000.00,029.2,026.9,000.0,037.7,030.8,23.5,0000.0,0005.45,0003.42,0002.98
2023-08-13 05:35:00,SystemResetWarning,0830.9,5.00,000.00,029.2,027.2,000.0,037.7,030.8,23.5,0000.0,0005.88,0003.43,0002.97
2023-08-13 05:36:00,SystemResetWarning,0830.9,4.99,000.00,029.2,027.4,000.0,037.7,030.9,23.4,0000.0,0005.80,0003.41,0002.96
2023-08-13 05:37:00,SystemResetWarning,0830.9,5.00,000.00,029.2,027.6,000.0,037.7,031.0,23.3,0000.0,0005.84,0003.42,0002.94
2023-08-13 05:38:00,SystemResetWarning,0830.9,5.00,000.00,029.3,027.8,000.0,037.8,031.0,23.2,0000.0,0005.84,0003.42,0002.95
2023-08-13 05:39:00,SystemResetWarning,0831.0,5.00,000.00,029.3,028.0,000.0,037.8,031.0,23.1,0000.0,0006.14,0003.44,0002.95
2023-08-13 05:40:00,SystemResetWarning,0831.0,4.99,000.00,029.4,028.1,000.0,037.8,031.1,23.0,0000.0,0006.38,0003.45,0002.94
2023-08-13 05:41:00,SystemResetWarning,0831.0,5.00,000.00,029.4,028.2,000.0,037.8,031.1,22.9,0000.0,0007.16,0003.45,0002.93
2023-08-13 05:42:00,SystemResetWarning,0831.1,4.99,000.00,029.4,027.3,000.0,037.8,031.0,22.9,0000.0,0007.25,0003.45,0002.92
2023-08-13 05:43:00,SystemResetWarning,0831.0,5.00,000.00,029.3,025.8,000.0,037.6,030.7,23.0,0000.0,0007.20,0003.43,0002.90
2023-08-13 05:44:00,SystemResetWarning,0831.0,4.99,000.00,029.3,025.6,000.0,037.6,030.5,23.0,0000.0,0007.11,0003.41,0002.90
2023-08-13 05:45:00,SystemResetWarning,0831.0,5.02,000.00,029.2,025.8,000.0,037.6,030.5,23.1,0000.0,0007.13,0003.41,0002.89
2023-08-13 05:46:00,SystemResetWarning,0831.0,5.00,000.00,029.1,026.2,000.0,037.6,030.5,23.2,0000.0,0006.69,0003.39,0002.89
2023-08-13 05:47:00,SystemResetWarning,0831.1,5.00,000.00,029.1,026.5,000.0,037.7,030.7,23.2,0000.0,0006.70,0003.40,0002.88
2023-08-13 05:48:00,SystemResetWarning,0831.1,5.00,000.00,029.2,026.9,000.0,037.7,030.8,23.3,0000.0,0006.88,0003.39,0002.88
2023-08-13 05:49:00,SystemResetWarning,0831.1,5.00,000.00,029.2,027.2,000.0,037.7,030.8,23.3,0000.0,0007.03,0003.40,0002.86
2023-08-13 05:50:00,SystemResetWarning,0831.0,5.00,000.00,029.2,027.5,000.0,037.7,030.9,23.3,0000.0,0006.63,0003.37,0002.86
2023-08-13 05:51:00,SystemResetWarning,0831.1,5.00,000.00,029.3,027.7,000.0,037.7,031.0,23.3,0000.0,0006.61,0003.39,0002.87
2023-08-13 05:52:00,SystemResetWarning,0831.1,5.00,000.00,029.3,027.9,000.0,037.8,031.0,23.2,0000.0,0005.74,0003.36,0002.86
2023-08-13 05:53:00,SystemResetWarning,0831.0,5.00,000.00,029.3,028.0,000.0,037.8,031.1,23.1,0000.0,0005.52,0003.34,0002.85
2023-08-13 05:54:00,SystemResetWarning,0831.0,5.00,000.00,029.4,028.1,000.0,037.8,031.1,23.0,0000.0,0005.52,0003.33,0002.84
2023-08-13 05:55:00,SystemResetWarning,0831.0,5.00,000.00,029.4,027.8,000.0,037.8,031.1,22.9,0000.0,0005.59,0003.34,0002.84
2023-08-13 05:56:00,SystemResetWarning,0831.0,4.99,000.00,029.4,026.1,000.0,037.6,030.7,22.9,0000.0,0005.57,0003.34,0002.82
2023-08-13 05:57:00,SystemResetWarning,0831.0,5.02,000.00,029.3,025.5,000.0,037.6,030.5,23.0,0000.0,0005.58,0003.33,0002.83
2023-08-13 05:58:00,SystemResetWarning,0831.0,5.00,000.00,029.2,025.7,000.0,037.6,030.4,23.1,0000.0,0005.45,0003.30,0002.83
2023-08-13 05:59:00,SystemResetWarning,0830.9,5.00,000.00,029.1,026.0,000.0,037.6,030.5,23.3,0000.0,0005.11,0003.30,0002.83
